Simultaneous Nadir Overpasses (SNOs) Predictions

Prediction of SNOs between AURA and NPP Satellite Orbit:

Table of predicted SNOs for the next 14.0 days since TLE Epoch: 10/16/2021
Index Date (AURA) Time (AURA) Lat,Lon (AURA) SZA (AURA ) Date (NPP) Time (NPP) Lat,Lon (NPP) SZA (NPP ) Distance(km) Time Diff (sec)
1 10/16/2021 02:52:16 79.16, 31.48 101.01 10/16/2021 02:51:54 79.15, 31.36 101.05 2.72 22
2 10/16/2021 03:41:35 -79.47,-158.84 79.41 10/16/2021 03:42:30 -79.48,-158.80 79.46 0.81 55
3 10/18/2021 18:19:21 -79.04, -20.99 77.93 10/18/2021 18:18:12 -79.04, -20.95 77.88 0.70 69
4 10/18/2021 19:08:41 79.28, 148.10 101.78 10/18/2021 19:08:50 79.27, 147.98 101.80 2.91 9
5 10/21/2021 10:35:46 -79.16, 95.59 77.15 10/21/2021 10:35:08 -79.16, 95.64 77.14 1.07 38
6 10/21/2021 11:25:06 79.38, -95.30 102.56 10/21/2021 11:25:46 79.38, -95.40 102.55 2.21 40
7 10/24/2021 02:52:10 -79.30,-147.62 76.44 10/24/2021 02:52:03 -79.31,-147.51 76.45 2.36 7
8 10/24/2021 03:41:31 79.48, 21.25 103.33 10/24/2021 03:42:42 79.48, 21.22 103.29 0.65 71
9 10/26/2021 18:19:14 79.11, 159.41 104.70 10/26/2021 18:18:21 79.11, 159.50 104.72 1.85 53
10 10/26/2021 19:08:36 -79.32, -31.63 75.57 10/26/2021 19:09:01 -79.31, -31.71 75.57 1.86 25
11 10/29/2021 10:35:40 79.15, -84.41 105.51 10/29/2021 10:35:19 79.15, -84.47 105.53 1.36 21



Historial Predications of SNOs between AURA and NPP
